Overview Statistics Trail Chart Weather Telemetry Raw packets
 

This is the latest recevied weather packets stored in our database for station/object PA5MB-15. If no packets are shown the sender has not sent any weather packets the latest 10 day(s).

<< 18 19 20 21 22 23 24 >>
Time Temp. Humidity Pressure Rain* Wind** Luminosity Snow
1777902625 17.78° C 84% 1014.3 hPa 0 mm - 14 W/m² -
1777902332 17.78° C 83% 1014.3 hPa 0 mm - 14 W/m² -
1777902030 17.78° C 82% 1014.3 hPa 0 mm - 15 W/m² -
1777901735 17.78° C 83% 1014.3 hPa 0 mm - 14 W/m² -
1777901443 18.33° C 82% 1014.4 hPa 0 mm - 15 W/m² -
1777901130 18.33° C 81% 1014.4 hPa 0 mm - 15 W/m² -
1777900832 18.33° C 80% 1014.4 hPa 0 mm - 16 W/m² -
1777900530 18.33° C 81% 1014.4 hPa 0 mm - 18 W/m² -
1777900243 18.89° C 81% 1014.4 hPa 0 mm - 19 W/m² -
1777899932 18.89° C 78% 1014.5 hPa 0 mm - 21 W/m² -
1777899625 18.89° C 78% 1014.4 hPa 0 mm - 23 W/m² -
1777899330 18.89° C 78% 1014.4 hPa 0 mm - 24 W/m² -
1777899030 18.89° C 78% 1014.5 hPa 0 mm - 23 W/m² -
1777898730 18.89° C 76% 1014.5 hPa 0 mm - 26 W/m² -
1777898430 18.89° C 78% 1014.5 hPa 0 mm - 25 W/m² -
1777898123 18.89° C 78% 1014.4 hPa 0 mm - 25 W/m² -
1777897830 18.89° C 78% 1014.4 hPa 0 mm - 21 W/m² -
1777897536 18.89° C 78% 1014.4 hPa 0 mm - 21 W/m² -
1777897231 18.33° C 79% 1014.4 hPa 0 mm - 23 W/m² -
1777896930 18.33° C 78% 1014.4 hPa 0 mm - 25 W/m² -
1777896643 18.89° C 75% 1014.3 hPa 0 mm - 27 W/m² -
1777896343 18.89° C 76% 1014.4 hPa 0 mm - 29 W/m² -
1777896030 18.89° C 76% 1014.4 hPa 0 mm - 29 W/m² -
1777895723 18.89° C 76% 1014.4 hPa 0 mm - 32 W/m² -
1777895443 18.89° C 74% 1014.4 hPa 0 mm - 33 W/m² -

* Rain latest hour (hover to see other rain measurements)
** Current wind speed in m/s (hover to see current wind gust speed)